SCP
8 8 7 7 7 7 6 6 6 6 7 8 8 6 5 4 3 3 2 2 2 2 2 2 2 2 2 2 2 1 1 1 1 1 1 1 2 3 3 3 3 2 2
8 8 9 9 8 8 7 6 6 7 8 8 8 7 5 4 3 3 2 2 2 2 2 2 2 2 2 2 2 1 1 1 1 1 1 1 2 2 3 3 3 2 2
8 9 10 10 10 9 8 7 6 7 7 8 8 6 5 3 3 3 3 3 3 3 2 2 2 2 2 2 2 1 1 1 1 1 1 1 1 2 2 2 3 3 3
7 8 10 10 10 9 8 7 6 6 6 6 6 5 4 3 3 3 3 3 3 2 2 2 2 2 3 2 1 1 1 1 1 1 1 1 1 1 1 1 2 3 3
5 6 7 8 8 7 6 6 5 5 5 5 5 4 4 3 3 3 3 3 2 2 2 2 2 2 2 1 1 1 1 1 1 1 1 1 1 1 1 1 1 2 2
4 4 5 5 5 5 5 5 5 5 4 4 4 4 3 3 2 2 2 3 3 2 2 2 2 1 1 0 0 0 1 1 1 1 1 1 1 1 1 1 1 1 1
3 3 4 4 4 4 4 4 5 5 5 5 5 4 3 2 1 1 2 3 3 3 3 2 2 1 1 1 0 0 0 0 1 1 1 1 1 1 1 1 1 0 0
4 4 4 5 5 5 4 4 5 6 6 6 5 5 4 2 1 1 1 2 3 3 3 2 2 2 1 1 1 1 1 0 0 0 0 0 1 1 1 1 1 1 1
4 5 6 7 7 7 7 6 6 7 7 7 7 6 5 3 1 0 1 2 2 2 2 2 2 2 2 1 1 1 1 1 1 0 0 0 0 1 1 1 1 0 0
3 4 5 8 9 10 10 10 9 9 9 9 8 7 6 4 1 0 0 1 2 2 2 2 2 2 1 1 1 1 2 2 2 1 1 0 0 0 1 1 0 0 0
2 3 3 5 8 10 10 11 10 10 9 8 7 6 5 3 1 0 0 1 1 2 2 2 2 1 1 0 0 1 1 2 2 2 1 1 1 1 1 0 0 1 1
2 2 2 3 4 5 6 6 6 6 5 4 4 4 3 2 1 0 0 0 1 1 1 1 1 0 0 0 0 0 0 1 1 2 2 2 1 1 1 1 1 1 1
2 2 2 2 2 2 2 2 2 2 2 1 1 1 1 1 1 0 0 0 0 1 1 1 0 0 0 0 0 0 0 0 1 1 2 2 2 1 1 1 1 1 1
3 3 2 2 2 2 1 1 1 1 1 1 1 1 1 1 1 0 0 0 0 0 0 0 0 0 0 0 0 0 0 0 1 1 2 2 2 2 1 1 1 1 1
3 3 2 2 2 2 2 1 1 1 0 0 1 1 1 1 1 0 0 0 0 0 0 0 0 0 0 0 0 0 1 1 1 1 2 2 2 2 1 1 1 1 1
4 3 2 2 2 2 2 1 1 1 0 0 0 0 0 0 0 0 0 0 0 0 0 0 1 1 0 0 0 0 1 1 1 2 2 2 2 2 1 1 1 1 1
3 3 2 2 2 2 2 2 1 1 0 0 0 0 0 0 0 0 0 0 0 0 0 0 1 1 1 0 0 0 0 1 1 1 2 2 2 1 1 1 1 1 1
2 2 2 2 2 2 2 2 2 1 1 0 0 0 0 0 0 0 0 0 0 0 0 0 1 1 1 0 0 0 0 0 1 1 2 2 2 1 1 1 1 1 0
2 1 1 1 1 1 1 1 1 1 1 1 0 0 0 0 0 0 0 0 0 0 0 0 0 1 1 1 0 0 0 0 1 1 2 2 2 1 1 1 1 0 0
2 1 1 1 1 1 1 1 1 1 1 1 1 0 0 0 0 0 0 0 0 0 0 0 0 1 1 1 0 0 0 0 1 1 2 2 2 2 2 1 1 0 0
1 1 1 1 1 1 1 1 1 1 1 1 1 0 0 0 0 0 0 0 0 0 0 0 0 0 1 1 0 0 0 1 1 2 2 2 2 2 2 1 1 0 0
1 1 1 1 1 1 1 1 1 1 1 1 1 1 0 0 0 0 0 0 0 0 0 0 0 0 0 0 0 0 1 1 1 2 2 3 2 2 1 1 1 0 0
1 1 1 1 1 1 1 1 1 1 1 1 1 1 0 0 0 0 0 0 0 0 0 0 0 0 0 0 1 1 1 1 2 2 2 2 2 1 1 1 1 0 0
1 1 1 1 1 0 0 0 0 0 1 1 1 1 1 0 0 0 0 1 1 1 1 1 1 1 1 1 1 1 1 1 1 1 1 1 1 1 1 1 1 1 1
1 1 1 1 1 1 1 1 1 1 1 1 1 1 1 1 1 0 0 1 1 1 1 1 1 1 1 1 1 1 1 0 0 1 1 1 1 1 1 1 1 1 1
1 1 1 1 1 1 1 1 1 1 0 0 0 1 1 1 1 1 0 1 1 1 1 1 2 2 2 2 1 1 0 0 0 0 0 1 1 1 1 1 0 1 1
Wind_Speed
4 3 4 3 3 3 2 3 2 3 4 5 5 6 5 5 5 4 4 4 4 4 4 4 3 3 2 2 2 2 2 1 3 2 1 1 1 2 2 2 3 3 5
4 4 4 4 4 3 3 3 3 3 3 4 4 5 5 5 4 4 5 4 4 4 4 4 4 3 3 3 3 3 2 2 3 3 2 2 2 3 3 3 3 3 3
4 4 4 4 3 3 3 3 3 3 3 3 4 4 4 4 4 4 4 4 4 4 4 3 3 3 3 3 3 3 3 3 2 3 3 2 2 2 2 3 3 2 3
3 3 3 3 3 3 3 3 3 3 3 3 3 4 4 3 3 3 3 3 4 3 3 2 3 3 4 3 4 3 3 3 3 3 3 2 2 2 2 2 2 2 2
3 3 3 3 3 3 2 2 2 2 3 3 3 3 3 3 3 3 3 4 3 3 3 3 3 3 3 3 4 3 3 3 3 3 3 2 2 1 2 2 2 2 3
3 2 3 3 3 2 2 2 2 2 1 2 2 3 3 3 2 1 2 2 3 3 3 3 4 4 4 4 5 4 4 3 3 3 3 3 3 2 1 2 2 2 3
3 2 2 3 3 3 2 2 2 2 2 1 2 2 2 2 2 2 2 3 3 3 3 3 5 5 4 3 4 5 5 6 6 4 5 4 3 2 2 3 2 3 4
3 2 2 2 2 2 2 2 2 1 1 2 2 3 3 3 4 4 4 4 4 4 4 4 4 3 4 3 3 4 4 4 6 6 5 5 4 3 3 4 4 4 4
3 2 2 2 2 2 2 2 1 1 1 2 2 3 3 3 5 5 4 3 3 5 5 5 5 5 5 4 4 4 4 4 5 6 6 6 6 6 4 2 3 3 4
2 2 2 2 2 2 2 2 1 1 2 2 2 2 3 3 5 6 5 4 4 4 4 4 5 5 5 5 4 4 4 4 4 4 4 6 7 7 8 6 5 4 4
1 1 1 1 1 1 1 1 1 2 2 3 3 2 3 3 4 6 7 4 4 4 4 3 2 3 4 5 5 4 5 4 4 4 4 4 5 5 6 6 6 5 4
1 1 1 1 2 2 1 1 2 2 3 3 2 2 2 3 4 6 8 8 6 4 4 2 2 4 4 5 5 6 6 5 3 4 4 4 4 4 4 5 6 6 5
1 1 1 2 2 2 3 3 3 2 3 3 3 3 3 2 3 5 7 8 8 5 3 2 2 4 4 5 8 8 6 4 4 5 5 4 4 3 3 2 3 4 5
2 2 2 2 3 2 2 3 3 3 3 3 3 3 3 2 2 2 3 3 4 4 3 2 3 5 5 5 5 5 5 5 5 4 4 3 3 3 3 2 2 3 3
2 2 3 4 4 3 3 3 4 3 3 3 3 3 3 3 2 3 3 3 3 3 2 3 3 3 3 4 4 4 4 4 5 5 5 4 4 3 3 2 2 2 2
3 3 3 4 3 4 4 3 3 4 3 4 4 4 3 3 3 4 4 4 4 4 3 4 4 4 4 5 4 4 4 5 5 5 5 5 4 4 3 2 3 3 3
3 4 4 4 4 4 4 4 3 2 3 3 4 4 4 4 4 4 4 3 3 3 3 4 4 4 4 5 5 5 4 4 4 4 4 4 4 3 3 3 3 3 3
4 4 4 4 4 4 4 4 3 3 2 3 3 5 6 6 6 6 5 2 3 3 5 5 5 5 5 5 5 4 4 3 3 3 3 3 3 3 3 3 3 3 3
4 4 4 4 3 4 3 4 3 3 3 3 2 3 5 5 4 4 4 4 5 5 5 5 5 5 5 5 4 4 3 3 3 3 3 3 3 3 3 3 3 3 3
3 4 5 4 4 4 4 3 3 3 3 3 3 2 1 2 2 3 4 5 6 5 5 5 5 5 5 4 3 3 3 3 2 2 3 3 3 3 3 3 3 3 3
3 3 4 3 3 4 3 3 3 3 3 3 2 2 3 3 4 5 5 5 5 5 5 5 4 4 3 3 2 3 3 2 2 2 2 3 3 3 3 3 3 3 3
3 2 2 3 3 4 4 3 3 3 3 3 2 2 5 4 4 4 4 4 4 4 4 4 4 3 2 2 1 2 2 2 2 2 2 2 2 3 2 2 2 2 2
3 3 3 3 3 3 3 3 3 3 3 3 3 2 3 4 4 4 4 3 3 3 3 3 3 2 2 1 1 1 1 2 2 2 3 2 2 2 2 1 2 1 1
3 3 3 3 3 3 4 3 3 3 3 3 3 3 3 4 4 4 3 3 2 3 3 2 2 2 2 1 1 1 1 1 2 2 3 3 2 2 2 2 2 2 1
3 3 3 3 3 3 3 3 3 3 3 3 3 3 3 3 3 3 3 3 3 2 3 2 2 2 2 2 1 1 0 0 1 2 2 2 3 2 2 1 1 1 1
3 3 3 3 3 3 3 3 4 4 4 3 3 3 3 3 3 3 3 3 3 2 2 2 2 2 1 1 1 1 0 0 1 2 3 2 2 1 1 1 1 1 1
Wind_Direction
149 140 130 140 150 154 152 164 175 173 171 171 182 191 199 205 206 210 223 226 226 226 237 241 242 262 269 278 272 264 260 251 258 266 244 218 214 231 198 222 230 213 209
141 138 138 140 143 149 160 165 175 183 186 187 191 191 202 207 203 207 222 227 229 230 236 239 244 250 250 266 277 276 271 261 251 259 251 242 239 219 211 227 244 229 212
140 138 137 144 148 154 162 170 173 185 199 203 195 198 211 213 205 206 218 226 230 233 230 232 239 250 257 257 261 265 266 265 249 250 256 246 243 238 225 241 249 254 244
135 138 138 147 150 160 170 175 188 195 201 210 210 206 214 219 220 216 221 229 234 237 236 233 239 242 250 258 261 260 266 269 261 254 248 246 243 237 220 240 257 249 256
142 147 148 146 143 153 169 180 195 212 213 206 211 215 217 220 229 218 226 235 232 239 242 235 241 245 251 254 266 273 275 273 271 268 261 255 249 249 241 248 259 263 254
142 147 147 156 165 169 171 168 181 208 222 205 213 225 226 237 214 207 226 246 237 230 237 240 241 234 230 231 240 245 252 259 272 272 273 263 258 260 266 269 271 280 275
151 159 164 165 168 175 185 179 194 202 212 219 220 221 225 210 183 202 230 236 248 239 237 240 251 246 227 225 231 238 241 246 243 244 262 269 269 263 261 270 265 266 268
159 163 167 168 169 169 183 188 195 206 217 229 233 222 220 220 207 212 222 230 243 247 246 243 248 249 253 247 248 244 242 247 242 237 241 251 257 260 243 245 253 262 266
179 181 185 192 192 193 196 199 209 213 231 240 237 228 223 219 211 214 219 235 241 247 246 241 237 237 232 234 244 250 253 255 252 245 230 232 240 246 244 252 255 257 270
199 197 189 198 199 204 208 218 223 226 243 251 247 237 225 221 214 214 222 247 245 252 252 243 239 234 220 218 233 244 253 263 275 265 248 242 239 238 229 222 233 244 260
208 172 162 168 191 203 197 207 217 235 245 249 251 239 230 226 218 216 224 248 256 257 253 247 238 191 204 221 234 243 243 262 274 268 252 243 238 231 222 219 219 224 238
188 181 191 191 220 216 192 211 230 235 238 239 241 252 248 226 221 217 222 234 253 268 265 260 230 194 214 232 237 240 245 257 263 266 258 251 245 238 228 216 212 217 223
186 198 222 229 234 216 205 215 230 235 242 248 245 251 249 233 214 209 216 234 249 256 274 276 243 228 237 241 239 240 242 246 252 257 256 251 246 238 228 218 217 222 226
191 197 223 235 244 232 222 223 229 235 242 252 257 258 258 244 221 206 211 230 244 250 259 258 235 231 246 252 248 237 232 237 242 254 262 257 254 243 230 217 221 224 231
212 220 229 231 230 229 234 244 243 245 240 244 258 267 269 263 244 238 241 243 244 246 243 248 243 231 234 237 233 229 231 230 236 246 252 251 248 244 238 218 216 231 244
227 231 238 240 230 226 227 237 257 248 231 237 246 251 262 243 217 226 242 253 250 230 221 242 242 242 242 244 241 237 230 230 233 232 235 235 237 236 234 220 213 223 240
244 239 238 242 238 235 235 230 237 248 250 255 251 243 238 242 227 226 230 235 242 215 232 247 245 244 247 248 244 241 238 231 232 233 237 235 238 233 226 225 224 225 238
248 247 248 248 247 247 246 242 239 237 230 250 254 235 228 229 227 229 223 217 251 237 239 244 247 244 245 247 244 242 238 228 229 233 236 231 230 228 228 223 220 222 231
244 246 246 254 258 258 257 255 249 244 242 241 229 228 234 238 240 245 221 234 246 245 242 243 246 246 245 245 246 242 235 229 226 231 237 230 227 229 233 227 217 222 230
246 249 251 251 255 259 262 262 261 255 252 251 247 236 201 214 227 234 231 240 247 253 252 248 250 249 248 248 247 249 248 241 228 228 238 233 225 224 232 236 223 214 220
256 250 246 256 266 272 272 265 265 265 262 265 263 245 219 227 234 237 231 236 244 252 253 256 257 256 258 257 253 256 258 255 240 236 244 236 232 226 220 228 226 215 216
260 257 251 250 259 269 277 276 272 267 269 271 268 230 217 242 254 255 252 247 243 244 250 254 261 262 259 258 268 274 277 278 275 258 252 249 251 248 229 220 221 222 216
263 252 248 254 254 258 258 263 269 268 265 271 267 256 238 253 261 260 260 259 252 253 256 255 259 269 278 267 248 251 271 286 292 307 300 272 254 245 232 219 224 226 225
265 251 242 253 260 263 267 265 264 268 269 270 266 262 255 260 267 270 270 267 262 252 248 249 253 267 275 265 244 251 278 292 287 292 293 280 268 252 240 225 219 212 213
264 258 243 238 251 260 268 276 281 276 272 273 274 276 272 273 281 287 290 288 282 268 258 253 253 263 279 279 279 279 273 285 307 318 292 271 266 265 247 241 227 210 211
275 266 253 248 245 253 257 263 271 277 279 281 281 287 289 283 281 286 293 299 294 281 268 254 268 278 288 290 352 7 52 243 305 313 294 270 269 271 261 240 229 213 222